Lid_Strength_Index
3 4 4 5 5 5 4 3 6 1 1 7 5 7 6 10 7 6 7 7 8 9 8 9 8 8 6 6 6 8 6 7 10 9 6 5 6 9 9 12 12 11 13 12
3 4 4 5 5 5 3 4 4 1 2 8 6 5 6 6 7 7 7 7 6 6 8 9 7 6 5 5 6 7 6 8 11 10 8 6 8 7 8 9 9 12 18 16
3 3 4 5 4 4 3 4 6 3 3 3 6 7 7 7 6 7 6 7 6 7 7 6 7 7 5 4 5 2 4 8 10 12 10 8 9 8 7 8 11 12 14 12
3 3 4 4 4 4 3 3 5 4 7 5 5 5 6 8 8 5 6 7 7 7 8 7 8 6 6 5 5 5 6 9 8 8 8 8 8 8 8 8 8 10 9 10
2 3 4 4 5 4 3 5 5 4 5 4 6 7 7 7 7 7 7 7 7 6 7 7 8 7 7 7 5 6 5 9 8 10 8 8 9 8 7 8 8 8 8 12
2 3 3 4 5 4 3 2 1 4 5 5 6 6 6 6 5 6 6 6 7 7 6 6 5 5 5 5 6 7 7 8 10 12 9 9 11 11 9 9 9 10 11 10
1 2 4 4 4 4 2 2 2 5 7 6 6 5 5 6 6 7 6 5 6 5 4 4 5 5 5 5 5 5 8 8 9 12 10 16 10 7 8 9 9 8 9 8
1 2 3 3 4 3 3 2 2 4 7 5 5 5 5 5 5 6 6 5 4 4 5 7 8 8 7 7 6 6 6 9 10 13 13 10 12 11 11 10 10 8 8 8
0 1 3 3 4 3 2 2 1 3 6 6 4 5 5 6 6 5 5 3 2 4 6 7 10 11 9 9 9 6 6 8 12 12 16 17 13 9 7 8 13 8 7 8
1 0 2 3 3 3 2 2 -0 2 5 4 3 5 6 4 5 6 5 4 4 4 7 8 9 9 7 10 11 11 10 10 13 14 15 11 8 7 6 14 13 7 7 7
1 0 1 2 2 2 3 2 1 2 4 3 3 3 4 4 4 6 4 5 5 6 8 8 8 8 8 9 9 9 11 13 12 13 15 16 6 7 11 9 6 6 6 7
1 0 1 1 1 1 2 4 1 1 3 3 1 1 1 2 2 4 4 5 5 5 7 7 7 9 8 9 11 7 12 11 13 10 10 7 5 6 5 5 6 6 6 6
1 0 1 1 1 1 2 2 2 1 4 3 3 3 1 1 1 1 5 4 3 4 3 6 7 9 7 10 10 9 10 8 11 9 7 7 6 5 4 5 5 5 5 5
1 0 1 1 2 2 2 2 1 2 3 6 4 0 2 0 0 1 1 2 2 2 3 6 7 8 5 8 7 7 7 7 8 8 6 6 5 5 5 5 4 5 4 4
1 0 0 -0 2 2 2 2 1 1 3 6 5 2 1 1 1 1 1 2 3 4 5 6 7 5 5 5 5 7 6 8 9 9 5 6 6 5 4 5 5 5 5 5
1 1 0 1 1 2 1 5 1 0 1 5 7 2 2 1 2 2 2 2 3 4 5 5 4 3 5 7 8 5 5 4 4 6 4 4 4 4 4 5 5 4 4 3
1 1 1 2 2 1 3 4 2 2 -1 4 7 6 3 2 2 2 3 2 3 4 5 5 5 5 4 6 8 5 4 4 4 3 3 5 5 5 4 4 4 4 3 2
1 1 1 2 2 1 2 -0 1 1 2 3 7 6 5 2 4 5 3 4 4 4 5 4 5 5 5 7 5 4 3 3 3 3 3 4 3 4 5 4 4 5 4 3
1 1 2 1 1 3 2 0 1 -0 2 7 6 7 9 3 4 4 4 3 6 4 6 6 5 6 7 5 5 4 4 4 4 3 3 3 4 5 5 4 4 4 4 3
1 1 3 6 3 1 2 2 4 3 3 4 6 4 7 4 4 5 5 4 6 8 6 4 6 7 5 5 5 4 3 3 3 4 5 4 4 5 5 5 4 3 3 3
1 4 5 1 -0 1 4 7 7 6 7 5 5 5 6 3 6 6 5 7 7 10 8 7 8 10 7 5 5 4 3 3 3 4 4 4 4 5 5 5 3 3 2 3
1 1 0 1 4 6 8 8 6 7 8 5 6 5 4 4 3 6 6 9 9 13 8 9 10 9 7 6 5 4 3 3 3 4 4 4 4 4 3 3 3 3 3 2
1 3 5 6 6 11 10 11 9 8 5 5 5 6 4 4 4 5 6 9 11 7 11 12 10 7 5 5 5 4 3 4 4 4 4 4 5 3 3 3 3 2 2 2
5 7 12 9 9 8 7 7 6 5 4 4 5 5 6 5 6 6 8 6 6 11 13 13 8 6 6 4 4 4 4 4 4 4 3 3 3 3 2 2 2 2 2 2
6 6 11 8 6 5 5 4 4 4 3 4 5 5 5 6 7 6 7 9 10 11 12 9 6 5 4 5 4 4 4 4 4 3 3 3 2 2 2 2 2 2 2 2
5 6 7 6 6 6 5 5 5 3 4 4 5 7 8 8 7 9 9 10 13 10 9 7 5 4 4 4 3 3 3 3 3 3 3 3 2 2 2 2 2 2 2 2
7 7 4 5 6 5 5 4 5 3 5 7 7 8 8 6 8 10 8 10 7 7 6 5 4 4 4 3 3 3 3 3 3 3 3 3 3 2 2 3 2 2 1 2